星链-1990 (STARLINK-1990 )

导读 | 星芒AI

STARLINK-1990 是星链(Starlink)卫星互联网项目中的一颗低轨道通信卫星,由SpaceX公司研制并发射。该卫星属于星链计划的第二代卫星群,旨在提供全球范围内的高速互联网服务。STARLINK-1990 运行在约550公里高的轨道上,采用先进通信技术,支持更广的覆盖和更低的延迟。其发射有助于增强星链网络的稳定性和服务能力,特别是在偏远和网络基础设施薄弱的地区。

基本信息
目录编号:
47586
目录名称:
STARLINK-1990
国际标识:
2021-009AQ
轨道中心:
EARTH
卫星名称:
星链-1990
卫星全名:
星链-1990 (STARLINK-1990 )
卫星状态:
已陨落 最后检测时间 2025-03-07
发射日期:
2021-02-04 UTC
国别 :
美国 (US)
星等 :
--
轨道信息
数据来源 国际轨道数据
星历时间: 2025-03-07T06:41:54+0800
轨道信息已过期284天
半长轴: 6556.774km
偏心率: 0.0008076
轨道倾角: 53.029°
近地点辐角 311.129°
升交点赤经 210.425°
平近点角 141.337°
近地点: 173.343km
远地点: 183.935km
周期: 88.063分钟
每日圈数: 16.351874
详细信息
固有亮度:
5
最大亮度:
2.5
卫星平台:
Starlink V1.0
覆盖范围:
全球
运营商:
太空探索技术公司
运营商所在国:
美国
制造商(研发单位):
太空探索技术公司
制造商所在国:
美国
使用方式:
暂无
卫星简介
星链(Starlink)计划是由太空探索技术公司(SpaceX)提出的一个巨型低轨卫星互联网星座项目,计划在2019年至2024年间在太空搭建由约1.2万颗卫星组成的“星链”网络,其中1584颗将部署在地球上空550千米处的近地轨道,并从2020年开始工作。该卫星仍在工作。